GFSGL_sfc_rhum_021.txt.gz
RH
71 73 77 75 79 81 71 82 83 78 77 74 77 71 70 70 71 76 75 71 75 74 74 76 76 75 61 59 66 62 62 64 64 49 45 58 71 70 65 63 60 60 50
65 74 79 81 83 75 67 71 85 85 82 79 81 76 73 68 70 75 71 67 74 73 70 74 73 62 78 84 76 81 67 68 68 75 63 56 66 68 69 72 62 50 52
61 67 77 85 74 82 80 84 84 82 84 82 82 80 76 70 73 74 73 72 73 75 69 70 69 70 75 80 72 67 59 67 74 79 64 54 57 60 65 65 64 63 54
56 67 78 79 84 79 84 89 90 92 88 86 86 84 80 78 74 71 70 74 74 68 69 70 68 68 70 76 75 81 80 76 76 82 76 60 55 60 61 59 56 47 48
67 71 76 82 82 82 88 90 89 88 78 83 85 83 77 72 62 71 69 71 74 70 67 68 66 71 78 78 63 67 74 69 60 64 67 56 53 53 58 51 57 52 54
74 75 81 83 84 81 82 84 86 89 88 85 85 82 75 64 74 81 78 69 69 70 69 66 67 79 79 87 88 90 86 80 79 80 63 64 80 69 55 60 58 58 58
76 79 84 84 84 81 76 83 86 88 86 80 82 82 75 78 82 85 89 68 69 68 71 73 72 55 78 66 75 84 86 91 91 84 92 81 76 69 73 76 76 78 76
81 83 82 83 82 80 80 82 88 87 78 76 75 77 77 71 88 91 91 75 78 73 74 74 74 72 69 75 72 68 66 66 70 60 68 69 68 67 71 79 90 90 73
81 83 81 80 81 81 83 84 83 90 79 73 73 78 79 77 97 99 98 96 96 90 78 74 75 72 85 87 70 72 70 66 68 82 85 88 88 89 85 87 85 69 60
79 80 80 80 81 80 80 83 86 89 84 66 72 80 82 83 99 100 99 99 98 98 92 89 88 81 91 90 74 73 74 67 67 65 63 65 71 68 80 77 73 89 61
76 80 83 81 82 80 86 89 91 89 82 82 80 86 87 85 97 100 100 99 99 98 88 65 63 90 94 90 92 74 76 75 70 62 56 52 54 56 54 56 65 63 74
87 85 88 86 80 77 88 89 89 89 88 91 93 95 70 81 98 99 100 100 96 72 65 57 67 91 94 91 82 89 85 80 54 54 54 52 53 52 50 54 68 70 72
86 89 92 87 87 88 94 92 93 92 87 95 93 84 70 87 89 99 99 100 98 72 57 72 88 92 93 84 84 83 80 55 54 54 53 51 49 49 60 56 62 74 82
87 89 85 86 88 90 82 77 78 77 78 76 80 70 91 91 74 72 71 68 88 70 79 60 73 76 82 72 63 59 52 52 51 49 48 46 44 43 41 43 55 74 92
82 83 84 82 85 93 93 89 73 82 78 66 69 81 82 70 65 74 70 58 55 68 70 61 60 59 58 58 53 53 50 48 47 43 42 41 39 37 39 44 56 71 95
80 75 72 70 73 78 79 79 98 98 99 100 100 83 70 87 90 88 88 93 99 99 63 56 57 58 57 52 51 47 45 47 44 43 40 39 38 39 40 49 56 77 92
70 69 63 67 75 83 85 71 70 78 98 96 92 90 85 87 94 94 95 98 99 92 54 55 57 57 52 48 42 39 39 41 54 40 39 39 38 39 43 50 56 91 75
68 89 60 58 60 80 86 71 65 63 60 59 89 79 93 94 94 95 94 90 62 67 54 55 55 50 45 42 40 37 35 37 37 38 38 37 36 38 41 46 52 74 79
61 57 57 52 59 75 78 72 59 63 58 58 58 77 80 92 92 89 88 51 48 48 49 48 44 42 42 42 40 39 41 38 42 40 36 35 34 35 37 41 49 70 75
70 88 80 69 75 73 69 65 59 59 59 56 54 54 56 62 52 51 51 52 48 44 46 47 45 46 46 43 39 36 38 40 39 36 36 35 35 33 34 35 43 52 57
60 58 77 59 61 60 61 59 56 55 54 54 55 56 72 50 46 46 46 49 48 48 50 47 48 46 42 39 38 37 37 36 37 36 35 35 35 33 34 33 34 43 50
55 62 55 50 55 61 60 58 58 54 52 52 52 60 93 54 44 46 47 47 47 51 45 53 44 38 32 32 37 37 37 36 37 38 37 35 34 33 33 32 33 34 40
55 66 65 67 67 81 65 56 56 58 59 58 48 49 57 52 47 46 47 46 47 48 49 44 41 35 33 32 37 41 40 35 37 40 38 36 34 34 33 33 34 34 37
54 56 63 67 71 66 68 70 59 70 60 59 48 48 48 50 50 48 45 46 47 46 45 39 34 31 32 31 36 34 36 38 40 37 42 38 35 38 32 33 32 36 33
52 56 56 60 66 66 66 57 52 53 57 46 41 42 43 47 48 46 43 45 46 47 44 37 32 32 29 33 32 34 51 80 64 74 35 37 39 41 34 30 34 32 35
38 44 48 53 55 58 58 55 52 49 44 36 38 40 42 46 46 48 45 45 45 43 41 35 33 32 27 26 28 44 71 82 62 91 41 32 34 32 30 32 33 27 32

GFSGL_sfc_rhum_024.txt.gz
RH
59 62 65 61 62 73 67 69 67 67 72 73 70 64 66 64 64 68 64 55 60 64 61 62 63 66 50 42 42 46 44 43 45 39 36 41 53 58 53 52 50 51 44
53 62 62 63 65 71 70 73 66 69 69 81 82 81 76 64 64 65 62 52 61 64 60 62 62 50 64 69 47 59 51 53 47 67 57 47 57 54 55 60 51 41 43
47 50 58 63 68 72 72 67 68 68 67 85 84 82 74 66 68 67 64 64 62 60 58 60 58 58 63 53 56 49 42 52 49 54 56 46 47 44 50 56 56 55 41
39 46 60 67 71 66 69 70 64 64 69 77 77 76 76 72 68 62 64 65 62 56 59 59 57 56 58 59 58 60 60 57 59 48 47 54 51 58 66 57 51 35 36
44 48 58 70 71 70 71 72 67 66 65 69 81 76 72 66 52 63 60 64 65 62 60 56 55 59 74 73 52 58 67 57 45 43 43 46 49 66 71 45 45 40 46
49 53 63 70 74 72 76 76 75 70 77 76 73 68 66 52 65 79 70 58 61 64 62 59 57 75 78 84 86 87 80 72 71 60 50 66 76 60 48 49 49 50 49
57 61 66 72 76 75 71 74 78 73 63 71 72 71 67 63 80 82 82 59 59 68 74 78 72 79 71 61 80 88 87 89 87 74 75 66 65 61 65 81 70 60 56
64 66 68 74 75 75 75 75 75 66 70 71 71 72 68 60 85 84 88 70 79 82 86 86 93 92 86 72 68 61 60 57 65 59 66 63 61 61 66 64 70 76 68
66 68 69 70 73 75 77 75 72 72 73 76 72 72 78 71 90 93 89 72 83 92 93 89 89 92 84 85 67 65 62 57 60 80 81 80 82 83 78 61 64 69 68
63 65 67 69 73 75 79 79 75 70 76 64 72 73 78 71 96 96 83 81 84 94 97 97 95 95 90 87 69 63 63 58 54 56 55 61 74 63 85 75 70 84 75
56 62 68 70 77 82 78 78 75 73 77 76 72 75 74 79 74 99 100 81 63 60 94 96 80 94 92 94 92 64 68 71 65 57 45 37 40 43 42 54 57 49 47
65 66 72 75 73 75 80 79 86 86 89 84 81 93 91 78 92 99 100 96 86 82 71 56 69 94 94 93 83 82 81 78 48 42 37 38 39 39 38 40 55 56 47
71 76 80 83 80 77 83 86 86 92 89 95 95 93 82 74 83 100 100 100 100 74 66 84 90 91 93 88 88 77 83 50 44 40 39 40 39 37 48 50 50 59 62
79 82 86 87 89 88 80 85 88 95 96 97 93 74 81 78 84 67 69 90 92 76 83 57 67 76 81 78 66 65 50 44 43 44 42 38 36 35 33 29 28 31 45
78 76 84 91 92 91 89 80 74 81 76 74 55 64 70 64 60 81 77 49 48 62 61 50 50 48 48 49 48 47 45 43 43 39 38 38 35 32 28 26 29 39 54
72 70 66 66 62 57 60 62 96 92 99 100 98 74 81 95 90 88 91 98 97 96 53 44 44 43 44 44 45 44 41 44 40 40 38 34 32 30 29 29 34 44 60
60 61 52 52 50 52 49 48 52 74 95 95 93 90 89 90 92 92 96 99 99 90 45 40 42 43 46 44 42 38 36 36 51 38 36 34 30 28 29 31 37 46 54
52 76 45 43 44 46 47 46 43 51 54 54 86 71 93 94 94 96 97 91 52 61 38 39 41 44 46 43 40 37 36 36 34 33 32 28 27 27 27 30 36 50 54
46 41 40 40 43 48 47 48 44 47 47 48 50 64 81 93 92 91 90 40 35 33 32 35 37 38 38 40 41 42 42 35 33 34 28 26 25 25 27 27 31 58 62
51 79 55 40 48 49 49 44 42 46 47 44 43 44 47 55 42 42 40 39 34 31 31 34 36 39 42 44 40 36 33 32 31 28 26 26 26 24 24 25 25 32 41
39 48 66 39 40 39 40 41 39 40 41 40 41 43 60 38 37 36 35 37 36 33 38 37 39 40 41 37 32 28 28 28 28 27 25 26 26 25 25 25 23 22 30
36 37 36 35 37 41 41 40 40 38 38 38 38 51 82 42 34 35 37 37 35 39 34 41 40 35 29 26 26 28 29 27 28 28 28 26 26 25 24 24 24 24 24
34 37 37 38 39 58 45 38 38 38 37 36 37 38 43 39 38 37 38 36 37 36 36 38 38 32 27 23 26 32 32 28 28 31 31 29 27 27 26 26 25 26 26
36 37 38 41 44 42 40 41 41 54 40 40 38 38 41 42 39 38 37 36 37 36 36 34 30 25 27 24 26 26 28 32 33 29 35 32 29 33 26 26 25 28 26
32 35 37 38 42 42 41 44 42 47 43 39 39 39 33 34 35 33 35 35 37 36 36 32 27 27 30 28 24 26 65 73 53 74 34 32 33 36 27 23 27 24 28
28 32 34 35 38 46 44 43 47 47 38 40 40 31 28 28 29 31 33 34 35 34 34 31 28 28 26 23 25 53 68 74 55 88 41 30 28 26 26 26 27 21 25

GFSGL_sfc_rhum_027.txt.gz
RH
61 63 66 64 64 68 61 65 66 65 64 64 68 66 68 72 68 76 70 59 59 65 61 64 70 67 49 43 50 69 60 71 65 50 39 45 66 61 55 57 48 54 44
54 62 64 66 65 64 66 65 68 70 70 68 70 68 67 65 70 75 72 54 59 63 67 71 62 47 66 75 51 67 52 56 47 70 57 48 59 61 73 68 52 39 45
50 52 61 65 66 67 69 68 68 72 71 68 70 70 66 71 72 72 69 67 62 59 60 60 57 58 70 56 60 57 44 55 68 58 51 43 46 47 55 62 73 61 45
37 45 60 67 68 64 68 72 72 73 72 70 70 70 67 70 62 70 60 63 61 58 58 60 55 57 63 71 68 73 66 58 58 53 52 49 52 55 53 69 60 54 53
42 46 56 67 68 70 72 73 73 72 68 68 69 66 64 55 49 69 60 60 66 61 59 55 59 63 77 75 55 64 74 60 46 46 48 45 42 69 69 53 55 45 50
46 48 58 67 71 73 74 73 74 69 68 67 66 62 63 51 68 76 68 58 63 66 65 64 71 79 79 89 94 95 86 87 86 64 59 59 72 61 50 48 50 50 54
51 54 60 69 74 77 72 75 80 75 69 70 68 67 64 64 81 77 78 58 58 64 72 73 81 80 87 88 93 97 96 90 87 75 77 72 75 70 72 73 70 66 60
58 59 63 68 74 79 74 77 80 73 75 72 68 70 68 67 85 85 83 62 65 65 67 72 80 80 90 92 95 95 91 82 78 70 76 73 71 65 69 68 74 75 62
59 63 64 66 71 73 77 78 76 76 78 70 66 71 74 80 89 90 84 59 62 70 70 85 75 85 90 92 92 94 91 80 57 72 76 76 75 76 72 56 56 61 69
60 62 64 65 70 70 74 76 82 79 79 80 78 78 84 82 94 94 85 83 76 58 74 80 92 79 96 95 85 77 75 70 67 56 56 66 76 70 82 74 61 63 66
54 58 64 66 71 70 80 76 84 85 84 82 84 84 83 83 84 95 95 80 64 69 59 70 76 97 97 97 92 72 70 72 66 59 50 44 43 42 35 60 79 62 51
60 60 66 70 62 68 81 82 84 88 86 83 89 84 82 84 95 97 100 97 88 74 57 74 74 97 100 94 86 76 81 77 52 46 43 42 36 34 35 41 62 60 50
66 72 75 72 67 77 85 89 85 84 73 78 72 90 89 90 77 99 100 100 100 81 83 90 96 94 93 89 92 80 83 54 49 47 43 38 35 36 54 52 57 63 62
73 77 76 78 81 76 74 80 74 82 88 93 89 87 71 88 69 81 84 97 99 92 88 65 69 72 79 77 64 71 57 51 47 46 43 39 36 35 34 31 30 29 30
72 73 77 73 74 82 80 78 78 74 74 69 81 83 78 69 70 93 88 78 75 72 62 52 53 51 49 51 50 61 68 61 45 42 40 39 36 34 32 28 28 31 35
72 71 74 73 73 63 66 68 97 91 97 97 94 69 65 86 92 92 93 90 88 87 54 49 44 41 55 66 73 72 65 50 41 41 42 39 36 34 31 28 28 32 40
61 64 55 54 49 49 51 52 59 77 92 93 92 93 88 86 88 89 98 99 100 87 46 42 40 45 65 65 62 44 39 37 54 41 40 38 34 30 29 27 28 32 41
52 70 53 44 40 40 41 42 40 50 54 58 84 72 91 91 91 92 98 91 51 60 39 35 35 46 43 41 39 38 37 38 38 36 34 32 29 27 27 28 27 32 38
46 40 36 36 35 39 37 37 34 39 42 46 53 64 82 92 92 92 95 44 34 32 30 30 32 33 35 36 39 41 45 40 36 34 33 28 26 25 27 25 26 42 44
42 64 47 35 38 37 36 36 34 37 40 41 43 45 49 57 45 44 43 40 36 30 28 31 31 35 38 41 42 40 37 32 32 29 27 26 26 25 23 24 24 25 28
37 36 63 34 37 36 36 34 34 36 39 39 44 48 60 43 35 35 34 35 36 32 34 35 35 38 39 40 35 30 27 27 27 26 24 26 26 25 25 24 23 22 22
36 34 33 30 36 45 47 49 45 36 41 49 56 51 71 37 33 33 34 34 34 37 33 38 37 34 32 28 26 25 27 26 26 27 28 27 27 26 25 24 23 24 24
32 34 37 48 61 68 39 34 46 51 46 45 50 47 39 33 34 36 38 34 34 34 34 34 36 34 29 26 23 28 31 26 27 28 31 30 28 28 28 26 24 25 26
52 41 47 59 58 52 50 52 50 58 40 44 44 40 40 38 35 36 41 35 34 34 33 33 31 28 25 26 22 23 26 31 32 30 36 34 30 33 28 26 24 26 26
28 33 41 47 52 39 36 36 50 49 42 42 35 43 41 35 38 36 37 39 32 34 34 33 30 27 29 29 24 28 58 67 43 73 31 36 33 36 27 24 26 23 26
25 29 30 44 44 55 46 50 59 61 57 38 46 41 33 37 34 33 33 36 30 30 33 30 30 29 26 25 26 58 72 62 48 82 40 35 30 29 26 27 27 21 24

GFSGL_sfc_rhum_030.txt.gz
RH
72 75 77 75 76 77 70 71 74 74 76 77 78 76 76 77 78 83 82 79 81 82 76 78 77 79 79 76 79 78 80 74 82 77 76 67 75 77 72 74 74 71 65
67 72 75 76 76 76 74 72 73 75 78 77 77 78 77 77 79 82 79 70 78 81 81 82 80 68 85 85 80 83 80 82 81 83 78 78 74 78 80 80 74 52 70
62 65 71 75 75 77 78 73 73 76 78 74 78 80 79 76 78 81 80 77 75 76 77 81 80 80 83 80 82 81 81 82 84 82 86 77 74 74 75 78 80 79 66
52 60 70 75 75 73 75 78 75 78 80 78 79 80 78 76 76 76 77 78 77 72 75 76 76 78 82 86 84 85 89 92 88 92 85 79 80 76 78 81 80 78 73
52 59 66 73 74 76 76 78 76 78 80 80 80 78 76 70 66 77 76 76 79 76 75 74 74 75 82 86 84 89 90 94 94 91 73 69 68 74 74 71 73 75 76
51 57 65 71 76 77 78 77 80 80 83 82 80 78 77 60 70 77 77 76 76 78 78 78 77 78 84 90 91 91 92 95 96 98 94 81 79 83 78 77 80 74 74
55 57 63 71 77 78 77 79 82 85 82 83 80 77 77 76 76 81 81 73 76 75 79 79 75 68 86 86 90 94 95 95 92 96 98 94 91 88 89 87 86 85 82
59 60 64 71 76 79 80 82 83 83 83 81 79 78 76 75 87 87 85 75 82 82 79 79 83 84 88 89 90 90 90 92 97 98 98 95 91 80 86 82 84 84 77
58 66 66 69 78 81 84 84 84 88 82 80 77 79 80 78 94 90 87 84 86 83 81 82 83 86 88 93 89 90 90 87 79 89 90 86 83 78 76 79 73 74 71
60 62 67 74 79 83 84 84 85 86 83 76 76 80 85 86 93 90 91 94 90 88 88 88 96 88 94 96 89 86 88 82 84 79 82 80 82 79 79 78 69 73 79
60 65 73 76 80 81 84 85 89 88 88 87 85 84 84 85 86 94 93 90 92 95 94 94 85 98 98 99 95 87 88 87 81 80 74 66 63 63 59 63 79 82 84
68 71 77 80 70 74 87 87 90 92 93 90 90 90 85 89 96 98 96 99 97 95 92 93 88 93 99 99 96 88 81 81 73 70 66 63 60 63 64 72 77 78 69
75 80 80 80 82 86 88 90 89 88 88 94 91 87 93 94 95 98 100 100 100 96 84 99 99 99 100 98 93 80 80 76 72 69 68 67 66 68 72 69 74 79 82
81 82 82 83 88 86 84 81 83 85 91 93 88 86 95 96 83 86 84 94 99 92 91 86 82 79 79 79 79 85 76 73 72 76 73 70 70 68 67 67 65 63 54
80 83 84 82 83 86 88 89 88 86 89 85 80 81 85 80 76 85 85 85 84 86 85 79 76 74 72 73 71 72 73 73 79 72 71 71 69 66 67 65 63 55 54
83 79 80 85 79 80 80 80 97 94 93 95 92 78 79 90 90 90 87 86 83 79 76 91 91 82 74 77 82 77 82 77 76 70 72 70 68 67 65 63 61 65 62
80 78 75 73 69 73 73 74 77 85 90 93 94 88 86 88 89 88 88 88 85 79 72 70 66 62 77 71 72 72 67 70 71 67 69 69 65 63 60 59 59 61 62
71 83 68 64 63 61 65 69 69 75 70 71 89 82 92 90 90 90 89 87 62 69 61 56 59 62 63 71 66 61 63 65 66 66 62 58 58 60 57 57 57 58 58
58 52 62 53 54 54 53 52 51 58 61 65 64 72 87 92 92 92 95 61 56 52 51 52 52 52 58 60 66 68 67 64 62 61 59 57 56 50 53 52 49 55 57
52 64 52 46 45 46 46 42 42 50 58 58 55 57 58 61 56 58 59 61 54 47 48 50 52 59 63 65 67 67 62 59 59 59 58 56 56 50 42 44 43 46 52
50 50 70 44 42 42 42 42 40 44 50 49 50 55 67 56 50 49 49 55 50 48 56 55 61 60 60 62 60 51 48 47 50 48 48 51 53 45 52 46 39 41 38
44 38 36 34 39 48 48 45 46 38 40 47 56 58 74 50 41 48 55 50 48 56 50 61 54 55 52 49 46 44 46 45 47 49 50 48 49 45 47 42 43 44 41
55 46 56 56 54 73 70 88 50 56 66 50 50 52 54 48 42 52 58 55 55 51 52 50 54 52 50 45 42 48 50 48 49 49 52 52 48 50 48 47 44 43 45
38 42 57 81 90 62 52 75 52 61 48 47 50 50 49 45 41 49 52 49 54 52 49 50 47 41 46 45 42 39 46 51 48 48 53 53 49 50 47 47 43 42 45
51 53 45 62 66 61 61 51 41 46 41 50 56 52 54 46 52 50 44 48 51 50 46 46 46 42 42 42 44 44 65 68 58 67 48 50 53 57 47 39 45 40 43
38 39 38 38 53 51 47 51 56 56 56 50 55 55 52 50 51 42 43 44 43 40 43 43 43 42 37 36 39 61 74 65 59 71 52 46 48 49 44 44 42 36 41

GFSGL_sfc_rhum_033.txt.gz
RH
76 75 76 79 80 80 78 84 87 75 82 78 80 87 86 90 88 92 90 88 93 88 88 86 91 83 83 82 88 84 85 86 87 78 82 77 81 76 74 72 77 77 77
73 77 79 79 81 84 78 74 71 79 81 79 79 85 84 88 85 89 88 81 85 92 86 88 85 76 85 88 88 88 88 88 88 87 87 83 77 72 80 81 78 67 75
71 75 80 82 81 83 82 78 75 75 85 79 81 82 85 84 87 86 82 88 93 84 87 90 89 88 92 94 93 88 90 88 91 88 91 89 84 81 81 86 86 85 74
70 74 79 81 81 79 80 78 86 80 80 83 81 80 81 83 83 88 88 93 92 87 82 85 87 88 90 92 89 92 93 94 92 94 96 94 90 78 87 84 83 86 80
66 72 75 77 78 80 81 83 75 85 78 80 82 86 86 83 78 90 87 90 93 89 81 76 77 82 84 88 89 92 94 95 96 96 97 91 90 81 89 86 92 88 81
59 67 71 74 80 82 82 83 84 78 83 89 87 88 90 77 84 89 86 88 91 84 81 84 79 82 87 86 86 89 91 94 94 97 97 97 93 82 85 95 96 95 96
50 61 68 74 79 82 82 83 88 81 87 92 88 89 94 84 83 89 87 86 84 84 82 77 84 75 90 91 94 93 93 92 88 94 96 97 96 94 93 89 89 92 92
56 60 66 71 77 82 82 84 86 83 95 93 89 85 94 94 93 88 84 81 93 88 84 90 93 93 96 95 95 96 96 96 97 98 98 96 97 94 96 91 92 92 93
59 60 66 70 76 82 83 85 89 93 91 91 94 94 92 85 89 91 90 91 94 94 92 94 94 96 97 98 97 97 96 96 90 95 95 94 94 93 92 95 88 95 95
52 61 63 69 75 84 83 90 93 93 90 95 92 88 85 78 92 90 93 96 95 95 91 93 88 93 100 98 97 97 98 97 94 93 92 91 91 84 84 89 73 96 92
58 74 74 74 81 84 88 89 95 95 93 94 89 86 81 76 87 93 94 92 95 96 97 97 97 99 100 100 99 98 96 93 89 89 86 84 81 79 77 74 88 97 98
78 83 88 88 86 88 88 96 96 95 96 95 93 94 94 91 96 96 94 93 97 97 97 97 96 100 100 100 100 96 89 81 86 85 85 82 85 81 66 65 71 87 95
86 90 90 85 87 88 97 98 99 98 98 99 97 98 97 98 98 99 97 96 100 98 95 99 100 100 100 100 98 96 85 89 91 89 89 90 80 61 65 69 67 60 61
92 90 94 94 96 97 97 93 93 90 94 97 97 99 98 98 99 100 100 99 100 99 97 99 96 96 96 95 99 94 93 91 91 93 92 86 84 73 69 74 67 63 62
90 96 98 98 98 99 98 93 90 97 96 91 94 98 98 99 99 99 100 99 99 99 98 97 95 95 96 96 96 96 86 86 95 91 82 84 76 75 74 67 66 62 63
98 98 98 98 98 97 93 93 92 95 95 95 98 90 97 100 100 100 100 98 99 98 96 98 97 97 97 97 93 94 84 82 85 82 79 72 74 78 69 69 69 69 75
97 97 97 94 90 90 90 90 90 88 92 95 96 95 93 97 95 91 88 85 81 83 93 95 94 93 93 95 91 81 86 92 77 66 80 82 77 67 69 66 60 69 64
90 92 81 81 82 83 83 84 86 89 89 89 92 91 93 91 90 88 87 81 75 76 85 84 80 83 89 87 85 79 79 78 76 66 62 60 61 69 62 60 62 65 62
80 80 80 78 79 81 80 79 83 82 87 89 88 88 95 92 91 89 91 84 82 82 80 78 73 75 80 81 84 81 76 68 61 60 60 69 70 64 57 58 63 65 68
81 84 83 80 74 74 76 76 76 78 83 82 82 84 86 80 76 72 70 72 81 70 65 71 75 76 78 79 76 71 67 66 69 75 73 73 66 58 56 62 58 59 63
69 71 70 70 69 65 68 66 62 67 70 75 74 72 78 70 76 74 73 76 71 73 71 69 74 72 74 74 70 58 57 60 67 62 61 61 60 60 64 58 56 62 59
70 68 65 56 60 64 64 67 64 62 64 67 72 74 81 78 77 78 78 76 72 70 71 70 68 73 62 57 56 54 58 65 65 63 63 61 62 66 62 61 63 61 58
94 86 76 70 76 88 92 90 75 80 81 76 65 66 71 70 76 73 64 65 65 65 70 69 72 69 63 52 48 58 61 65 72 72 68 67 70 71 69 65 66 57 54
93 87 90 91 92 92 84 81 87 82 72 69 67 66 66 68 70 69 68 67 70 72 67 66 64 64 56 53 52 63 69 66 66 54 56 61 65 73 74 69 60 57 56
91 96 88 87 83 80 77 78 71 64 66 67 71 67 69 68 65 60 70 69 68 73 68 64 61 51 47 50 53 47 65 74 50 57 63 57 57 63 70 54 52 58 53
59 69 74 68 69 69 72 74 69 74 66 63 73 73 72 64 64 63 62 68 69 72 67 66 60 56 48 53 48 58 74 74 59 64 54 56 60 66 71 52 52 56 52

GFSGL_sfc_rhum_036.txt.gz
RH
69 71 72 72 70 72 84 87 78 77 72 75 82 81 84 86 91 91 94 92 92 93 92 91 87 89 91 88 93 91 92 87 82 81 87 81 81 80 76 83 78 81 84
69 70 74 74 76 73 72 76 83 76 84 75 75 83 84 85 88 89 90 85 94 93 92 93 89 85 90 89 94 88 88 93 92 90 89 87 88 79 82 85 77 76 84
68 71 75 79 81 78 76 72 82 81 87 82 78 82 84 86 87 86 86 90 88 93 92 92 90 90 90 93 95 93 95 93 95 95 93 95 90 86 83 88 88 81 72
69 72 75 78 81 80 78 77 75 76 88 84 82 83 83 85 86 85 87 91 89 90 88 87 80 84 91 91 90 95 95 96 95 96 96 96 95 86 93 85 79 86 86
72 73 74 77 80 80 84 85 82 77 75 84 83 84 87 86 83 89 86 86 87 91 94 87 79 79 84 83 83 88 94 96 97 97 96 96 94 92 91 87 83 83 83
69 75 75 79 82 83 84 88 86 86 81 92 88 88 91 81 86 92 86 87 89 87 89 94 79 86 87 88 88 87 90 95 96 98 95 96 94 95 95 96 93 91 87
67 72 75 79 85 86 84 88 92 86 90 96 91 91 93 83 90 92 91 90 94 91 93 94 88 75 89 89 93 98 97 96 93 94 93 95 94 95 95 95 96 96 97
68 70 75 80 83 85 87 89 93 88 87 98 94 91 94 93 92 93 94 88 97 96 95 95 92 92 94 94 95 95 94 97 96 97 96 95 97 95 96 94 96 96 97
60 68 72 77 81 86 89 90 88 89 89 97 96 94 94 94 92 92 95 94 97 96 96 95 93 95 97 99 96 96 97 98 97 96 96 95 95 94 95 99 99 99 97
56 56 67 73 79 84 85 87 86 89 94 98 97 93 91 90 95 92 92 95 96 97 97 95 96 97 100 100 97 98 99 96 97 96 94 94 94 95 92 97 96 98 98
49 54 60 70 75 79 83 85 94 95 98 98 97 97 96 94 91 93 94 90 93 97 97 97 97 96 100 100 100 98 97 97 95 94 93 94 89 83 80 88 96 98 98
52 58 65 70 73 78 85 95 97 97 98 99 99 99 97 92 96 96 94 93 95 95 96 97 97 100 100 100 100 100 99 92 97 97 95 91 89 87 74 76 73 84 86
60 67 71 74 77 86 95 98 99 98 99 99 99 99 99 98 98 96 95 94 100 98 98 99 100 100 100 100 100 100 96 98 97 96 95 94 95 82 79 70 69 63 64
68 88 90 90 95 97 98 99 99 99 99 99 98 99 99 100 100 100 100 100 100 99 98 99 99 99 100 99 99 100 99 98 97 96 96 96 94 80 73 77 67 64 66
94 97 98 99 98 100 100 100 99 98 99 98 97 98 98 99 100 100 100 99 99 99 96 92 95 97 97 98 98 99 98 98 97 97 96 95 86 79 76 72 73 72 68
98 99 99 99 99 99 99 99 98 99 100 100 100 98 100 100 100 100 100 100 100 100 99 99 98 97 96 96 96 97 97 93 97 97 96 92 79 80 75 72 76 72 71
98 99 99 99 99 99 99 99 100 95 96 98 98 100 100 100 100 100 100 100 100 100 97 98 98 98 97 98 98 98 96 97 94 92 85 85 80 69 70 69 65 69 66
98 100 98 98 98 98 97 98 96 86 91 94 91 96 99 97 94 89 88 84 84 84 94 94 92 93 96 96 95 93 94 80 70 66 58 62 65 70 66 61 64 70 67
97 99 98 98 96 97 97 96 90 86 90 91 88 89 91 92 91 91 89 87 86 88 86 84 89 90 88 87 85 84 80 71 66 64 65 72 78 70 61 62 68 70 73
97 97 94 93 97 96 96 94 86 88 86 89 90 93 92 83 87 81 77 76 82 79 76 77 81 82 82 82 79 76 72 70 72 76 80 71 67 64 63 67 63 65 70
88 97 98 96 88 86 84 86 86 88 90 92 91 85 85 78 80 75 74 77 77 73 75 76 80 82 84 82 77 68 63 65 73 69 66 66 65 64 73 67 67 70 67
84 93 93 94 94 83 80 79 80 80 80 80 85 83 88 81 79 75 71 75 78 72 70 74 79 77 78 82 72 63 67 69 70 70 69 69 72 73 76 72 69 70 62
91 85 81 84 92 92 93 92 83 73 80 82 78 78 78 78 82 85 80 80 78 77 77 76 76 71 66 60 58 66 70 68 69 72 68 68 70 71 78 77 73 63 61
90 89 91 95 95 93 90 89 92 92 88 75 80 74 68 67 78 79 82 81 77 78 77 76 73 66 60 57 59 66 72 75 70 60 56 59 65 69 71 76 61 60 63
96 94 90 92 94 95 92 91 86 78 72 69 73 79 78 76 80 78 76 70 70 74 73 72 71 61 49 50 60 66 74 80 55 61 61 55 50 61 70 71 60 64 60
85 94 96 97 93 85 88 78 81 84 81 84 75 70 70 72 77 73 74 70 70 66 64 67 61 52 50 52 53 62 78 73 60 64 52 51 55 65 74 75 63 60 64

GFSGL_sfc_rhum_042.txt.gz
RH
76 78 79 79 79 79 78 82 82 85 86 87 90 90 90 90 88 88 88 87 88 89 88 88 89 89 82 81 82 78 77 72 70 71 72 75 76 76 71 72 70 74 70
68 76 78 79 80 78 79 80 84 85 86 85 88 88 88 88 89 87 84 81 85 89 88 91 87 82 90 90 82 87 82 85 74 84 79 75 81 78 76 76 68 60 71
63 69 75 77 80 80 78 80 85 84 85 84 86 87 87 87 88 86 84 83 84 83 85 88 86 89 90 87 87 83 82 82 90 78 77 78 78 77 77 80 80 77 64
59 66 74 77 79 77 78 81 86 85 84 85 84 84 85 85 85 84 84 85 85 83 84 83 85 86 87 90 88 90 91 93 91 95 87 85 82 81 79 74 75 74 71
65 68 72 76 76 78 79 80 82 88 83 84 83 82 81 82 77 85 84 85 87 85 87 88 87 86 87 86 81 90 92 90 89 91 91 88 86 78 77 72 79 83 76
69 69 73 76 78 79 80 80 81 86 87 87 86 84 83 75 81 88 83 84 86 88 92 93 92 92 93 90 87 88 87 93 94 96 97 91 92 89 92 89 82 81 73
70 71 74 77 81 81 80 82 83 82 84 89 88 87 87 84 88 90 89 83 88 92 92 95 94 94 95 88 92 90 91 89 89 92 95 95 92 92 91 94 94 86 81
70 72 75 78 79 82 83 84 84 80 82 83 88 88 88 86 92 93 91 88 94 93 93 94 95 95 94 93 92 92 90 91 94 94 94 95 95 94 92 90 89 91 89
72 74 76 78 80 82 85 85 83 83 83 82 84 91 92 90 96 95 96 93 96 95 95 94 94 95 96 96 94 94 93 95 98 96 96 99 97 96 95 95 93 97 92
74 74 75 78 81 82 83 85 83 83 84 82 89 89 91 88 99 97 96 97 98 98 98 97 97 94 98 97 94 95 96 97 98 98 97 99 97 94 96 92 84 82 80
63 70 76 79 82 82 84 83 85 85 87 90 93 94 94 93 97 98 97 95 96 98 99 99 98 99 100 100 99 97 97 98 97 91 91 91 83 77 71 74 86 80 88
73 74 78 81 79 78 85 87 90 90 93 93 96 98 98 97 100 100 99 100 100 99 99 99 99 100 100 100 100 100 99 97 91 88 86 82 78 70 68 68 77 78 74
78 82 84 84 82 82 87 90 93 92 91 95 98 98 98 99 100 100 100 100 100 99 99 100 100 100 100 100 100 100 100 95 91 89 85 79 71 69 76 72 70 71 69
79 80 81 82 88 91 91 92 93 95 97 98 98 99 99 99 99 99 99 100 100 100 100 100 100 100 100 99 99 99 96 94 90 86 80 73 74 75 69 63 59 57 54
84 89 94 96 99 100 100 100 100 100 100 100 100 99 100 99 100 100 100 100 99 100 100 99 99 98 98 99 99 98 98 96 92 86 79 76 74 72 67 64 60 59 54
99 98 99 99 99 99 98 99 100 100 100 100 100 99 99 100 100 100 100 100 100 100 98 99 99 96 94 95 97 97 97 95 89 83 78 76 74 74 68 62 60 56 51
99 99 99 99 99 99 99 98 99 100 100 100 100 100 100 100 100 100 100 100 100 100 99 98 96 95 94 93 90 86 86 88 88 80 77 76 76 69 65 57 54 52 52
99 100 99 99 99 99 98 98 98 98 99 100 100 100 100 100 100 100 100 100 99 100 98 97 93 92 90 86 85 81 82 82 81 80 79 75 68 57 56 54 50 53 51
98 99 99 99 98 98 98 97 96 97 98 99 99 100 100 100 100 100 100 98 98 94 91 88 86 84 83 81 80 83 83 81 78 74 63 57 54 53 53 48 50 66 63
98 100 99 98 98 98 98 98 99 99 98 98 99 99 99 98 98 98 98 95 88 83 83 80 80 79 78 78 80 79 75 68 63 56 55 56 56 47 43 48 47 46 50
97 96 98 96 97 97 97 98 98 97 99 99 99 99 100 96 95 87 86 86 80 76 76 74 79 78 78 74 71 66 61 57 58 54 54 56 52 47 52 50 47 46 44
91 94 94 95 97 97 97 97 98 98 98 98 98 97 100 75 75 77 78 75 73 71 69 75 72 68 65 65 63 59 58 55 55 57 57 52 51 52 52 50 48 44 42
94 92 94 92 94 97 94 96 96 93 92 90 83 78 77 75 74 71 69 67 70 68 68 66 68 65 65 64 60 61 57 50 53 56 54 54 53 52 52 49 46 41 42
90 90 92 94 95 94 93 92 93 97 90 85 80 78 76 74 70 69 63 65 64 64 64 62 60 58 66 66 62 52 52 53 56 54 54 53 51 58 51 50 43 44 45
87 92 92 93 94 95 95 93 88 88 92 93 88 83 87 80 72 66 62 67 62 63 63 61 58 59 62 64 59 52 62 84 62 65 52 50 48 58 50 48 45 44 47
82 82 90 93 94 97 98 99 96 97 96 95 93 92 89 89 84 84 73 73 67 63 61 59 58 56 54 51 50 60 86 85 67 72 46 44 42 42 48 52 52 42 46

GFSGL_sfc_rhum_045.txt.gz
RH
69 71 73 71 71 73 70 72 74 74 75 73 72 73 74 76 77 80 76 71 76 74 70 72 72 72 54 53 54 51 50 50 48 47 47 54 64 61 55 56 54 54 45
64 70 72 72 72 70 72 70 72 75 76 75 74 73 73 73 76 79 76 68 74 74 71 73 70 61 76 70 58 68 58 62 50 69 57 54 66 65 64 65 51 36 45
59 63 69 72 73 74 73 72 72 75 75 72 75 75 73 72 74 76 74 72 71 70 69 72 70 71 75 63 65 60 58 62 62 52 50 53 54 54 60 65 62 56 49
52 58 70 76 75 71 73 74 73 75 76 76 77 76 74 71 71 70 72 74 73 68 68 69 68 69 72 78 78 75 70 63 66 60 55 56 57 69 61 58 52 50 50
58 60 67 73 74 75 75 75 74 75 74 75 77 74 72 69 60 74 72 73 76 73 70 69 68 69 76 81 74 78 78 70 58 60 59 54 58 74 69 50 56 54 59
61 63 67 72 75 76 77 76 76 76 77 77 76 75 74 59 73 85 77 69 72 75 74 74 72 84 85 88 87 85 77 76 75 57 53 60 72 72 77 58 64 59 64
64 66 68 73 76 77 75 77 79 79 77 79 78 76 75 72 82 87 87 68 71 75 78 75 73 73 85 81 94 90 86 86 79 75 75 74 76 75 74 93 75 71 62
67 67 69 73 75 77 77 79 80 75 78 80 78 78 76 72 86 88 87 72 74 76 76 76 78 81 88 89 89 82 76 74 78 63 71 71 76 90 77 72 74 77 70
65 69 69 71 75 76 79 79 77 76 76 76 76 80 81 77 91 90 89 71 69 79 78 77 81 88 92 99 87 80 80 74 87 90 90 94 95 92 81 74 70 79 75
63 64 67 70 74 76 78 80 77 76 73 64 70 74 82 79 95 94 87 64 74 72 84 87 94 91 100 100 94 93 84 78 82 85 85 91 92 87 96 80 63 64 57
56 60 67 70 75 76 78 79 79 77 74 78 77 75 78 83 82 98 96 75 67 82 91 96 95 100 100 100 97 88 87 80 88 78 76 77 75 72 66 69 70 55 46
60 61 69 73 66 65 81 82 80 84 90 91 88 85 85 86 99 99 98 94 93 93 94 96 95 100 100 100 98 98 99 98 75 72 78 68 66 60 58 56 64 59 49
66 69 71 73 72 72 80 82 75 81 86 88 89 91 96 99 97 100 100 99 100 98 97 98 100 100 100 100 100 100 100 94 87 76 68 65 57 50 59 64 64 67 66
72 74 73 73 77 75 66 67 70 71 78 94 94 96 98 99 100 100 99 99 100 99 99 98 99 100 100 99 99 100 97 94 74 65 63 56 53 54 52 48 47 45 43
65 67 71 65 83 94 93 87 79 84 78 76 94 98 100 100 100 100 100 99 99 100 99 100 100 99 99 99 99 99 97 93 77 66 60 57 52 51 51 49 48 47 46
78 79 93 94 96 96 97 98 100 100 100 100 100 98 99 100 100 100 100 100 100 100 100 99 99 99 99 98 99 97 94 92 71 64 60 54 52 52 52 51 50 46 44
97 97 96 97 97 97 90 86 97 100 100 100 100 100 100 100 100 100 100 100 100 100 97 99 99 99 98 97 92 93 92 80 73 64 60 55 54 54 57 52 47 42 40
96 100 95 94 96 96 89 84 79 95 98 99 100 100 100 100 100 100 100 100 100 100 96 98 99 98 96 88 74 70 65 69 68 64 59 57 56 55 54 48 42 41 35
94 94 96 95 94 95 95 93 83 85 84 97 98 100 99 100 100 100 100 97 98 99 99 98 97 96 83 67 66 65 66 63 61 61 58 57 54 48 46 40 35 54 50
96 99 98 96 94 90 86 88 92 92 90 95 98 100 99 98 98 97 94 96 98 98 98 93 77 71 70 67 68 66 65 67 66 59 54 50 45 39 36 32 30 30 33
93 91 97 93 89 77 73 74 80 87 96 97 97 97 100 98 97 96 97 93 89 78 71 70 72 70 69 65 61 58 55 53 52 46 44 43 41 35 31 30 28 28 28
83 90 88 80 79 72 80 83 86 89 92 95 99 99 100 96 94 80 70 68 63 62 58 61 56 53 50 52 51 48 47 46 45 44 43 40 38 32 31 30 28 28 28
68 75 72 74 81 87 76 76 84 87 87 85 92 88 69 63 60 57 58 55 55 53 51 50 52 48 47 46 45 47 44 41 42 41 39 38 35 33 32 31 29 29 29
67 69 72 76 74 66 66 67 74 88 81 76 70 64 57 56 56 58 53 53 51 48 48 44 40 38 47 44 43 40 37 36 36 38 38 36 34 42 32 32 29 31 30
66 78 74 70 70 70 68 64 65 68 75 81 66 61 58 55 52 51 48 46 45 46 44 40 38 42 44 46 42 39 62 78 45 49 38 38 36 41 32 28 30 30 32
51 60 69 83 86 87 93 95 95 93 84 83 78 86 71 65 55 50 46 44 43 44 40 38 39 40 41 40 41 60 85 85 58 69 37 35 34 32 29 31 33 30 31

GFSGL_sfc_rhum_048.txt.gz
RH
59 62 66 63 61 66 61 64 67 67 65 64 61 60 59 61 66 72 70 62 70 70 61 61 68 60 38 36 36 35 35 36 35 31 33 44 56 55 44 47 45 45 39
54 63 64 65 64 61 65 63 65 68 70 68 65 65 61 59 66 70 69 59 66 70 66 65 65 51 67 60 40 58 46 47 37 59 46 40 59 55 56 58 45 32 34
50 51 58 63 64 67 67 68 65 69 69 65 67 69 66 61 63 65 67 65 62 64 63 66 63 62 66 48 53 46 44 48 51 42 40 42 40 45 55 59 56 54 38
38 46 58 65 66 62 66 70 68 68 70 69 70 70 67 64 61 59 62 65 65 61 61 60 61 60 62 65 59 65 58 53 57 47 40 38 44 50 48 44 49 57 44
44 47 56 64 66 67 68 69 69 68 68 70 70 68 66 60 50 63 62 64 69 66 63 60 59 61 69 66 50 67 73 62 45 46 45 40 41 42 54 43 46 49 69
47 51 58 64 68 70 70 70 71 70 70 71 70 69 68 51 60 73 68 60 65 69 69 67 63 76 77 81 79 79 76 80 77 43 42 48 62 51 47 45 48 48 51
52 55 60 64 69 71 68 71 74 74 70 73 72 70 70 68 74 77 81 59 61 67 72 69 61 52 75 67 88 90 87 85 79 74 69 71 63 64 64 68 73 73 56
58 57 61 65 67 70 71 73 76 71 73 74 73 72 70 65 82 82 82 65 64 66 69 70 70 68 71 74 77 81 79 75 77 59 65 67 67 69 73 73 75 79 74
56 60 60 62 67 70 74 74 73 70 70 69 67 72 74 70 90 88 86 60 61 67 67 70 70 74 80 89 77 84 84 75 75 88 85 89 92 89 76 59 78 81 68
55 57 58 61 66 70 71 74 70 69 65 54 60 66 74 72 89 92 86 57 68 63 70 78 86 76 90 93 83 85 89 87 71 78 78 88 87 84 93 73 82 86 56
45 48 56 62 68 69 72 71 71 70 67 72 72 67 73 76 78 97 95 84 80 93 60 62 64 92 99 98 94 94 94 84 83 78 72 69 72 75 67 67 65 52 45
52 49 58 65 55 51 72 69 72 76 80 78 80 77 74 79 90 94 98 88 84 68 64 58 74 99 100 100 100 100 99 93 79 76 72 74 70 70 65 59 63 56 42
56 60 62 65 61 60 71 74 66 73 60 68 62 63 61 58 54 98 99 97 93 84 74 91 100 100 100 100 100 99 100 90 90 92 75 69 66 58 62 62 61 64 63
63 62 60 64 68 64 53 57 56 54 58 55 53 52 43 33 57 80 82 96 99 99 99 99 98 97 96 98 99 100 100 98 94 88 69 65 62 54 50 45 44 44 41
57 57 60 55 66 62 62 58 51 55 55 50 50 48 47 58 92 100 100 99 99 99 99 99 98 98 98 98 97 98 99 99 97 84 63 61 54 50 43 42 40 40 41
59 54 50 46 56 59 67 80 100 96 100 100 100 81 74 93 100 100 100 100 100 100 99 97 97 89 90 94 97 98 99 97 89 65 57 52 49 44 43 44 41 40 40
58 65 56 63 63 67 66 64 79 99 100 100 100 100 100 100 100 100 100 100 100 100 96 89 68 66 71 88 95 97 98 97 77 55 55 51 45 43 46 46 45 41 38
72 95 61 66 61 58 58 62 65 70 71 73 96 96 100 100 100 100 100 100 97 90 52 59 83 88 95 97 98 93 90 80 64 59 54 48 45 45 50 44 41 41 36
81 82 83 80 75 78 69 66 66 71 71 74 78 90 96 100 100 100 100 84 92 91 90 95 98 98 98 97 94 76 70 65 61 55 50 48 45 43 43 39 36 54 44
83 96 83 81 86 87 79 74 80 75 74 77 78 71 93 96 98 99 97 97 98 97 92 91 94 96 98 94 71 63 61 61 57 52 50 45 42 38 35 34 30 28 28
70 81 91 77 76 77 77 78 72 62 56 61 64 84 100 74 82 93 92 96 96 97 94 96 94 86 73 64 60 57 53 50 48 45 42 43 40 34 31 28 22 22 21
56 62 60 53 48 48 50 51 56 61 71 73 86 94 100 89 76 81 87 84 83 80 76 70 59 54 54 54 50 45 45 44 44 41 40 36 35 31 27 23 22 21 21
45 44 48 52 55 70 59 65 74 76 71 63 73 85 90 87 86 86 78 67 60 53 50 51 51 45 43 42 40 42 41 38 38 37 37 36 33 27 25 24 22 22 22
44 44 47 51 51 47 45 47 59 81 70 74 78 70 53 55 52 49 47 49 54 49 44 41 38 37 40 38 37 35 34 33 34 36 36 32 27 32 25 24 22 23 24
45 55 52 53 54 52 50 48 55 72 77 77 69 52 44 41 42 41 43 41 39 39 37 34 33 37 38 37 34 32 66 63 42 43 30 31 29 34 25 23 22 23 25
47 53 59 59 59 65 66 75 76 69 65 83 66 61 49 40 38 37 36 36 35 33 33 31 33 33 35 31 32 64 82 78 44 60 30 28 29 29 25 26 26 22 25